Simultaneous Nadir Overpasses (SNOs) Predictions

Prediction of SNOs over PacNW region [( 10.00, 139.50) to ( 22.70, 165.60)] between AQUA and NPP Satellites:

Table of predicted SNOs over PacNW region for the next 30.0 days since TLE Epoch: 5/15/2020
Index Date (AQUA) Time (AQUA) AQUA Lat,Lon Date (NPP) Time (NPP) NPP Lat,Lon Distance(km) Time Diff (sec)
1 05/16/2020 15:10:00 22.60, 159.85 05/16/2020 15:10:43 23.20, 157.27 273.24 43
2 05/24/2020 15:59:26 22.61, 147.49 05/24/2020 16:01:25 23.28, 144.61 304.43 119
3 06/01/2020 15:09:59 22.59, 159.85 06/01/2020 15:10:40 23.17, 157.28 270.87 41
4 06/09/2020 15:59:25 22.59, 147.49 06/09/2020 16:01:23 23.23, 144.62 302.41 118




NCC Satellite Simultaneous Nadir Overpasses (SNOs) Prediction Service
